World > North America > United States > New York

Hourly Randallsville, NY Regional Weather

Feedback E-mail the Weather

Latest News

Randallsville, NY Weather Maps

°F °C°F °C
Randallsville Weather Map
UTC Time: 5/26/2022, 01:03
Your Time:

Randallsville, NY Regional Weather

Expires:202205260100;;582710
ASUS41 KBGM 260010
RWRBGM

REGIONAL WEATHER ROUNDUP
NATIONAL WEATHER SERVICE BINGHAMTON NY
800 PM EDT WED MAY 25 2022

Note: "fair" indicates few or no clouds below 12,000 feet with no
significant weather and/or obstructions to visibility.

* = Station(s) that does not report precipitation, such as rain, 
snow, etc, also no thunder or fog.


NYZ009-015>018-022>025-036-037-044>046-055>057-062-260100
...Central New York...
  
CITY           SKY/WX    TMP DP  RH WIND       PRES   REMARKS
Binghamton     MOCLDY    66  47  50 S7        30.25S                  
Cortland       FAIR      68  48  49 S3        30.23F                  
Dansville      MOCLDY    72  49  44 SE13      30.15F                  
Elmira         MOCLDY    70  47  43 S9        30.21S                  
Ithaca         MOCLDY    68  50  52 SE8       30.23S                  
Hamilton       CLEAR     64  50  59 S3        30.24F                  
Monticello     MOCLDY    64  47  53 S12       30.33R                  
Norwich        PTCLDY    68  50  52 S5        30.27S                  
Oneonta        CLEAR     64  48  55 CALM      30.29S                  
Penn Yan       MOCLDY    71  48  43 S8        30.20S                  
Rome           MOCLDY    70  53  54 E5        30.23S                  
Seneca Falls   CLEAR     72  48  43 S6        30.19S                  
Sidney         MOCLDY    70  50  49 CALM      30.26S                  
Skaneateles    FAIR      70  54  56 E5        30.20F                  
Syracuse       CLOUDY    72  50  45 S5        30.20S                  
$$
 

SKY/WX - Weather  TMP - Temperature  DP - Dew Point  RH - Humidity
WIND - Wind Direction/Speed PRES - Barometric Pressure VSB - Visibility
WCI - Wind Chill Index E13G22 Wind - East Wind 13 mph/Gusts of 22 mph

Trending Headlines

Randallsville Radar Loop



Randallsville Quick Facts


National Two Day Weather Forecast


E-mail the Randallsville Weather Forecast

Voice your opinion or tell us about page issues...